Location: Unspecified
(49.2170°N, 0.0000°E)
Time: 20:17:07
(UTC+00:00)

Vanguard 3 - Pass Details

Date: 01 July 2019
Orbit: 507 x 3264 km, 33.4° (Epoch: 15 July)

Event Time Altitude Azimuth Distance (km) Brightness Sun altitude
Rises 09:34:07 0° 240° (WSW) 7,197 11.8 50.7°
Reaches altitude 10° 09:39:39 10° 235° (SW) 6,039 11.5 51.5°
Maximum altitude 09:55:24 39° 176° (S) 3,307 11.3 53.7°
Drops below altitude 10° 10:05:56 10° 113° (ESE) 4,084 11.5 55.1°
Sets 10:08:52 0° 105° (ESE) 4,738 11.5 55.5°
